Regional Weather Roundup
Issued by NWS

Home | Current Version | Previous Version | Graphics & Text | Print | Product List | Glossary On
Versions: 1 2 3 4 5 6 7 8 9 10 11 12 13 14 15 16 17 18 19 20 21 22 23 24 25 26 27 28 29 30 31 32 33 34 35 36 37 38 39 40 41 42 43 44 45 46 47 48 49 50
000
ASUS45 KSLC 281210
RWRUT

UTAH REGIONAL WEATHER ROUNDUP
NATIONAL WEATHER SERVICE SALT LAKE CITY UT
600 AM MDT FRI AUG 28 2015

UTZ001>011-023>025-281300-

NORTHERN UTAH

CITY           SKY/WX    TMP DP  RH WIND       PRES   REMARKS
BRIGHAM CITY   CLEAR     58  50  74 CALM      30.19S
HILL AFB       CLEAR     63  43  48 E17       30.20F
LOGAN          CLEAR     52  48  86 CALM      30.21S
OGDEN          CLEAR     64  43  46 S8        30.18S
PROVO AIRPORT  CLEAR     55  46  71 NE3       30.22S
SALT LAKE CITY CLEAR     67  51  56 SE10      30.16F
VERNAL         CLEAR     57  40  52 W5        30.28R
WENDOVER       PTCLDY    64  43  45 CALM      30.16S
HEBER CITY     CLEAR     45  41  87 CALM      30.32S
WEST JORDAN    CLEAR     63  39  42 SW6       30.20S

$$

UTZ012>022-026-027-281300-

SOUTHERN/CENTRAL UTAH

CITY           SKY/WX    TMP DP  RH WIND       PRES   REMARKS
BLANDING       CLEAR     62  44  53 CALM      30.32R
BRYCE CANYON   CLEAR     47  42  83 W7        30.42S
CEDAR CITY     CLEAR     54  47  77 CALM      30.26S
DELTA          CLEAR     59  43  54 CALM      30.21S
HANKSVILLE     CLEAR     63  52  67 W3        30.21R
MILFORD        CLEAR     55  44  66 S6        30.22S
MOAB/CYNLANDS  CLEAR     69  50  50 NE9       30.17S
PRICE          CLEAR     59  41  51 CALM      30.28S
ST GEORGE      SUNNY     72  48  43 S5        30.09R
KANAB          CLEAR     61  55  82 CALM      30.27S

$$

REGIONAL REPORTS     COLORADO/ARIZONA

CITY           SKY/WX    TMP DP  RH WIND       PRES   REMARKS
CRAIG, CO      CLEAR     45  43  93 SW5       30.35R
GRAND JUNCTION CLEAR     57  53  86 E6        30.24R
RIFLE          CLEAR     51  48  89 CALM      30.32R
MONTROSE       CLEAR     53  50  89 S6        30.32S
CORTEZ         CLEAR     54  49  83 NE7       30.25S
PAGE, AZ       CLEAR     72  51  47 CALM      30.15S
GRAND CANYON   CLEAR     48  43  82 CALM      30.33S
KINGMAN        CLEAR     70  54  56 CALM      30.09R
FLAGSTAFF      CLEAR     49  48  97 CALM      30.35S

$$

REGIONAL REPORTS    NEVADA/IDAHO/WYOMING

CITY           SKY/WX    TMP DP  RH WIND       PRES   REMARKS
LAS VEGAS, NV  PTCLDY    83  53  35 S3        29.94R
ELY            PTCLDY    48  42  80 S10       30.31S
ELKO           MOCLDY    58  33  39 E8        30.21S
POCATELLO, ID  CLEAR     57  42  57 E6        30.19F
BURLEY         CLEAR     56  46  69 N5        30.13S
EVANSTON, WY   PTCLDY    50  38  63 S8        30.37F
ROCK SPRINGS   CLEAR     52  43  71 E5        30.34F
KEMMERER       CLEAR     45  36  70 N12       30.38F

$$



USA.gov is the U.S. government's official web portal to all federal, state and local government web resources and services.